Weather History for Lytton, BC

Change the Weather History Date:

Thursday, February 14, 2013

  Actual Average Record
Temperature  
Mean Temperature 40 °F -  
Max Temperature 48 °F 40 °F 51 °F (2001)
Min Temperature 33 °F 26 °F 19 °F (2000)
Degree Days  
Heating Degree Days 24    
Moisture  
Dew Point 30 °F    
Average Humidity 66    
Maximum Humidity 81    
Minimum Humidity 46    
Precipitation  
Precipitation 0.00 in - - ()
Sea Level Pressure  
Sea Level Pressure 30.48 in    
Wind  
Wind Speed 4 mph ()    
Max Wind Speed 21 mph    
Max Gust Speed 32 mph    
Visibility 9.0 miles    
Events      
Averages and records for this station are not official NWS values.
T = Trace of Precipitation, MM = Missing Value Source: Averaged Metar Reports

Daily Weather History Graph

Daily Weather History Graph

Search for Another Location

Airport:

Trip Planner

Search our weather history database for the weather conditions in past years. The results will help you decide how hot, cold, wet, or windy it might be!

Date:

Astronomy

Feb. 14, 2013 Rise Set
Actual Time 7:18 AM PST 5:23 PM PST
Civil Twilight 6:44 AM PST 5:56 PM PST
Nautical Twilight 6:06 AM PST 6:35 PM PST
Astronomical Twilight 5:29 AM PST 7:12 PM PST
Moon 8:49 AM PST (2/14) 11:09 PM PST (2/14)
Length of Visible Light 11h 12m
Length of Day
10h 04m
Waxing Crescent, 22% of the Moon is Illuminated
Feb 14
Waxing Crescent
Feb 17
First Quarter
Feb 25
Full
Mar 4
Last Quarter
Mar 11
New

Hourly Weather History & Observations

Time (PST) Temp. Windchill Dew Point Humidity Pressure Visibility Wind Dir Wind Speed Gust Speed Precip Events Conditions
1:00 AM 34 °F - 28 °F 71% 30.42 in 9 mi NE 2.3 mph - -  
1:00 AM 33.8 °F - 28.4 °F 81% 30.42 in 9.0 mi Calm Calm - N/A   Clear
2:00 AM 33.8 °F 30.8 °F 28.4 °F 81% 30.42 in 9.0 mi North 3.5 mph - N/A   Clear
3:00 AM 33.8 °F - 28.4 °F 81% 30.43 in 9.0 mi North 2.3 mph - N/A   Clear
4:00 AM 34 °F - 28 °F 70% 30.44 in 9 mi North 3.5 mph - -  
4:00 AM 33.8 °F 29.6 °F 28.4 °F 81% 30.44 in 9.0 mi North 4.6 mph - N/A   Clear
5:00 AM 35.6 °F 32.8 °F 28.4 °F 75% 30.44 in 9.0 mi North 3.5 mph - N/A   Clear
6:00 AM 33.8 °F 30.8 °F 26.6 °F 75% 30.45 in 9.0 mi NNW 3.5 mph - N/A   Clear
7:00 AM 34 °F - 23 °F 53% 30.47 in 9 mi North 3.5 mph - -  
7:00 AM 33.8 °F 29.6 °F 23.0 °F 65% 30.47 in 9.0 mi North 4.6 mph - N/A   Partly Cloudy
7:25 AM 33.8 °F - 21.2 °F 60% 30.45 in 9.0 mi Calm Calm - N/A   Mostly Cloudy
8:00 AM 35.6 °F - 23.0 °F 60% 30.50 in 9.0 mi NNW 2.3 mph - N/A   Overcast
9:00 AM 35.6 °F - 26.6 °F 70% 30.52 in 9.0 mi Calm Calm - N/A   Overcast
10:00 AM 37 °F - 26 °F 54% 30.52 in 9 mi North 2.3 mph - -  
10:00 AM 37.4 °F - 26.6 °F 65% 30.52 in 9.0 mi North 2.3 mph - N/A   Unknown
11:00 AM 39.2 °F 35.9 °F 28.4 °F 65% 30.52 in 9.0 mi NNW 4.6 mph - N/A   Overcast
11:41 AM 41.0 °F 38.0 °F 30.2 °F 65% 30.48 in 9.0 mi North 4.6 mph - N/A   Scattered Clouds
12:00 PM 42.8 °F 40.1 °F 30.2 °F 61% 30.50 in 9.0 mi North 4.6 mph - N/A   Partly Cloudy
1:00 PM 45 °F - 31 °F 46% 30.49 in 9 mi North 5.8 mph - -  
1:00 PM 44.6 °F 41.4 °F 32.0 °F 61% 30.49 in 9.0 mi North 5.8 mph - N/A   Clear
2:00 PM 46.4 °F - 30.2 °F 53% 30.50 in 9.0 mi NW 2.3 mph - N/A   Partly Cloudy
3:00 PM 46.4 °F 39.2 °F 33.8 °F 62% 30.48 in 9.0 mi South 18.4 mph 28.8 mph N/A   Partly Cloudy
4:00 PM 46 °F - 33 °F 50% 30.47 in 9 mi South 20.7 mph - -  
4:00 PM 46.4 °F 39.8 °F 33.8 °F 62% 30.47 in 9.0 mi South 16.1 mph 32.2 mph N/A   Partly Cloudy
5:00 PM 46.4 °F 40.4 °F 33.8 °F 62% 30.48 in 9.0 mi South 13.8 mph 23.0 mph N/A   Partly Cloudy
6:00 PM 44.6 °F 38.1 °F 33.8 °F 66% 30.48 in 9.0 mi South 13.8 mph 20.7 mph N/A   Clear
7:00 PM 42 °F - 33 °F 60% 30.52 in 9 mi Calm Calm - -  
7:00 PM 42.8 °F - 32.0 °F 66% 30.52 in 9.0 mi NE 2.3 mph - N/A   Clear
8:00 PM 41.0 °F - 32.0 °F 70% 30.53 in 9.0 mi Calm Calm - N/A   Clear
9:00 PM 41.0 °F 39.0 °F 32.0 °F 70% 30.53 in 9.0 mi North 3.5 mph - N/A   Partly Cloudy
10:00 PM 42 °F - 34 °F 66% 30.54 in 9 mi South 5.8 mph - -  
10:00 PM 42.8 °F 40.1 °F 33.8 °F 70% 30.54 in 9.0 mi South 4.6 mph - N/A   Clear
11:00 PM 42.8 °F 39.3 °F 33.8 °F 70% 30.54 in 9.0 mi South 5.8 mph - N/A   Clear